DC4AT Weather Reports


Display with metric or nautical units.
time (UTC)temp
F
wind
direction
speed
MPH
gust
MPH
rain 1hr
in
rain 24hr
in
rain mn
in
humidity
%
barometer
mb
20260503192339 66 264 2.0 6.0 0.00 0.00 0.00 50 1011.6
20260503191339 66 276 0.0 4.0 0.00 0.00 0.00 51 1011.3
20260503190339 67 296 1.0 3.0 0.00 0.00 0.00 50 1011.2
20260503185339 67 295 1.0 4.0 0.00 0.00 0.00 49 1011.0
20260503184339 67 285 2.0 6.0 0.00 0.00 0.00 47 1011.0
20260503183339 67 330 2.0 4.0 0.00 0.00 0.00 46 1010.9
20260503182339 68 317 2.0 5.0 0.00 0.00 0.00 46 1010.9
20260503181339 68 315 3.0 7.0 0.00 0.00 0.00 45 1010.8
20260503180339 68 306 3.0 5.0 0.00 0.00 0.00 44 1010.7
20260503175339 68 294 2.0 7.0 0.00 0.00 0.00 43 1010.6
20260503174339 69 264 3.0 10.0 0.00 0.00 0.00 42 1010.7
20260503173339 69 286 1.0 4.0 0.00 0.00 0.00 42 1010.6
20260503172339 69 304 0.0 3.0 0.00 0.00 0.00 42 1010.6
20260503171339 70 273 1.0 4.0 0.00 0.00 0.00 41 1010.6
20260503170339 70 302 1.0 4.0 0.00 0.00 0.00 41 1010.5
20260503150339 73 292 4.0 10.0 0.00 0.00 0.00 39 1010.9
20260503131339 68 72 1.0 3.0 0.00 0.00 0.00 56 1011.9
20260503130340 67 73 1.0 4.0 0.00 0.00 0.00 53 1011.9
20260503110340 63 96 0.0 0.0 0.00 0.00 0.00 69 1013.0
20260503090340 69 305 3.0 9.0 0.00 0.00 0.00 53 1013.4
20260503081340 66 37 3.0 5.0 0.00 0.00 0.00 58 1013.3
20260503080340 65 34 2.0 3.0 0.00 0.00 0.00 57 1013.2
20260503072340 62 348 1.0 3.0 0.00 0.00 0.00 60 1013.3
20260503071340 61 5 0.0 0.0 0.00 0.00 0.00 68 1013.3
20260503070340 59 5 0.0 0.0 0.00 0.00 0.00 69 1013.4
20260503060340 54 107 2.0 4.0 0.00 0.00 0.00 74 1013.2
20260503054340 53 103 2.0 4.0 0.00 0.00 0.00 76 1013.2
20260503053341 52 130 1.0 3.0 0.00 0.00 0.00 78 1013.2
20260503052341 51 130 1.0 4.0 0.00 0.00 0.00 82 1013.2
20260503051341 50 107 0.0 3.0 0.00 0.00 0.00 84 1013.1
20260503050341 49 135 0.0 0.0 0.00 0.00 0.00 83 1013.3
20260503045341 48 134 0.0 3.0 0.00 0.00 0.00 84 1013.4
20260503044341 48 192 0.0 0.0 0.00 0.00 0.00 83 1013.4
20260503043341 48 191 0.0 0.0 0.00 0.00 0.00 83 1013.4
20260503042341 48 187 0.0 0.0 0.00 0.00 0.00 83 1013.5
20260503041341 48 187 0.0 0.0 0.00 0.00 0.00 83 1013.5
20260503040341 49 90 0.0 0.0 0.00 0.00 0.00 83 1013.6
20260503035341 49 90 0.0 2.0 0.00 0.00 0.00 82 1013.6
20260503034341 49 90 0.0 3.0 0.00 0.00 0.00 81 1013.6
20260503033341 49 223 0.0 0.0 0.00 0.00 0.00 80 1013.7
20260503032341 50 224 0.0 0.0 0.00 0.00 0.00 79 1013.6
20260503031341 50 224 0.0 1.0 0.00 0.00 0.00 79 1013.6
20260503030341 50 153 1.0 4.0 0.00 0.00 0.00 81 1013.6
20260503025341 50 320 0.0 2.0 0.00 0.00 0.00 80 1013.6
20260503024341 51 293 0.0 2.0 0.00 0.00 0.00 79 1013.6
20260503023341 51 293 1.0 2.0 0.00 0.00 0.00 78 1013.6
20260503022341 51 74 0.0 3.0 0.00 0.00 0.00 78 1013.7
20260503021341 52 86 1.0 6.0 0.00 0.00 0.00 76 1013.7
20260503020341 53 92 0.0 0.0 0.00 0.00 0.00 74 1013.8
20260503015341 54 92 0.0 0.0 0.00 0.00 0.00 73 1013.8
20260503014341 54 92 1.0 2.0 0.00 0.00 0.00 71 1013.9
20260503013341 55 92 1.0 3.0 0.00 0.00 0.00 71 1014.0
20260503012341 55 92 1.0 2.0 0.00 0.00 0.00 71 1014.2
20260503011341 54 92 1.0 3.0 0.00 0.00 0.00 72 1014.3
20260503010341 54 92 1.0 3.0 0.00 0.00 0.00 72 1014.4
20260503005341 54 92 1.0 3.0 0.00 0.00 0.00 71 1014.4
20260503004341 54 92 0.0 3.0 0.00 0.00 0.00 71 1014.4
20260503003341 54 92 1.0 3.0 0.00 0.00 0.00 72 1014.4
20260503002341 54 92 1.0 3.0 0.00 0.00 0.00 73 1014.6
20260503001341 53 92 3.0 6.0 0.00 0.00 0.00 77 1014.6
20260503000341 53 91 3.0 8.0 0.00 0.00 0.00 79 1015.0
20260502235341 53 276 3.0 9.0 0.00 0.00 0.00 78 1015.3
20260502234341 54 88 0.0 0.0 0.00 0.00 0.00 73 1014.6
20260502233341 55 88 0.0 0.0 0.00 0.00 0.00 71 1014.6
20260502232341 55 88 0.0 1.0 0.00 0.00 0.00 71 1014.7
20260502231341 55 88 1.0 3.0 0.00 0.00 0.00 70 1014.7
20260502230341 56 87 0.0 0.0 0.00 0.00 0.00 71 1014.7
20260502225341 57 90 0.0 0.0 0.00 0.00 0.00 67 1014.8
20260502224341 57 90 0.0 0.0 0.00 0.00 0.00 65 1014.8
20260502223341 58 90 0.0 3.0 0.00 0.00 0.00 64 1014.7
20260502222341 58 90 1.0 3.0 0.00 0.00 0.00 64 1014.8
20260502221342 59 77 0.0 0.0 0.00 0.00 0.00 63 1014.8
20260502220342 59 71 0.0 2.0 0.00 0.00 0.00 62 1014.8
20260502215342 59 67 0.0 2.0 0.00 0.00 0.00 63 1014.9
20260502214342 60 65 0.0 0.0 0.00 0.00 0.00 63 1015.0
20260502213342 61 65 0.0 0.0 0.00 0.00 0.00 61 1015.1
20260502212342 62 65 0.0 0.0 0.00 0.00 0.00 59 1015.1
20260502211342 62 65 1.0 3.0 0.00 0.00 0.00 57 1015.1
20260502210342 62 57 0.0 1.0 0.00 0.00 0.00 58 1015.1
20260502205342 62 56 1.0 4.0 0.00 0.00 0.00 58 1015.2
20260502204342 62 109 1.0 7.0 0.00 0.00 0.00 60 1015.3
20260502203342 62 111 0.0 1.0 0.00 0.00 0.00 62 1015.2
20260502202342 63 103 1.0 3.0 0.00 0.00 0.00 61 1015.2
20260502201342 64 103 1.0 3.0 0.00 0.00 0.00 58 1015.3
20260502200342 65 101 2.0 4.0 0.00 0.00 0.00 56 1015.3
20260502195342 65 96 2.0 4.0 0.00 0.00 0.00 54 1015.3
20260502194342 65 96 3.0 4.0 0.00 0.00 0.00 52 1015.3
20260502193342 64 93 3.0 6.0 0.00 0.00 0.00 53 1015.3